Regional Weather Roundup
Issued by NWS

Home | Current Version | Previous Version | Graphics & Text | Print | Product List | Glossary On
Versions: 1 2 3 4 5 6 7 8 9 10 11 12 13 14 15 16 17 18 19 20 21 22 23 24 25 26 27 28 29 30 31 32 33 34 35 36 37 38 39 40 41 42 43 44 45 46 47 48 49 50
000
ASUS43 KLOT 310112
RWRIL

ILLINOIS REGIONAL WEATHER ROUNDUP
NATIONAL WEATHER SERVICE CHICAGO/ROMEOVILLE IL
800 PM CDT MON MAR 30 2015

NOTE: "FAIR" INDICATES FEW OR NO CLOUDS BELOW 12,000 FEET WITH NO
SIGNIFICANT WEATHER AND/OR OBSTRUCTIONS TO VISIBILITY.

* THESE STATIONS ARE NOT UNDER NWS QUALITY CONTROL. THEY ALSO MAY NOT
  REPORT WEATHER SUCH AS PRECIPITATION OR FOG.

ILZ001-002-007-009-015-016-024-310200-
NORTHWEST ILLINOIS

CITY           SKY/WX    TMP DP  RH WIND       PRES   REMARKS
MOLINE         MOCLDY    63  30  28 SW13      29.84F
STERLING*      CLOUDY    59  36  41 SW5       29.84F
SAVANNA*       CLOUDY    60  33  36 S12       29.81F
$$

ILZ003-004-008-010-011-017-018-310200-
NORTH CENTRAL ILLINOIS

CITY           SKY/WX    TMP DP  RH WIND       PRES   REMARKS
ROCKFORD       CLOUDY    53  33  46 SE12      29.84F
FREEPORT*      CLOUDY    50  36  59 E8        29.84F
ROCHELLE*      CLOUDY    53  38  56 S10       29.86F
DE KALB*       CLOUDY    50  35  56 SE10      29.87F
PERU*          CLOUDY    60  33  35 SW10      29.89F
$$

ILZ005-006-012>014-019>023-310200-
NORTHEAST ILLINOIS

CITY           SKY/WX    TMP DP  RH WIND       PRES   REMARKS
CHICAGO-OHARE  MOCLDY    49  36  61 SE8       29.89F
CHICAGO-MIDWAY MOCLDY    52  35  52 E12       29.91F
AURORA         CLOUDY    56  33  42 CALM      29.88F
LANSING*       CLOUDY    52  31  45 E10       29.93F
JOLIET*        CLOUDY    58  35  41 CALM      29.90F
WAUKEGAN       CLOUDY    47  39  74 E7        29.88F
DUPAGE AIRPORT MOCLDY    54  33  45 E7        29.88F
KANKAKEE*      CLOUDY    55  37  50 S3        29.93F
WHEELING       CLOUDY    51  35  54 E6        29.90F
MORRIS*        CLOUDY    57  32  38 S5        29.88F
ROMEOVILLE*    CLOUDY    56  32  40 S6        29.89F
NORTHERLY ISL    N/A     45  35  68 CALM        N/A
$$

LMZ740>746-310200-
SOUTHERN LAKE MICHIGAN

STATION/POSITION SKY/WX   TEMP    WIND        PRES    VSBY  WAVE
                          AIR SEA DIR/SP/G                  HT/PER
                          (F)     (DEG/KT/KT) (MB)    (MI)  (FT/S)
HARRISON CRIB              47      30/ 13/ 14   N/A
BURNHAM HARBOR             44     110/  1/ 11   N/A
CALUMET HARBOR             46      20/  5/ 11 1012.8R
BURNS HARBOR               47      80/  6/ 10 1014.9R
MICHIGAN CITY              52     300/  5/  7   N/A
$$

ILZ025>027-034>036-040-047-049-050-058-095>099-310200-
WEST-CENTRAL ILLINOIS

CITY           SKY/WX    TMP DP  RH WIND       PRES   REMARKS
QUINCY         PTCLDY    58  33  39 SW9       29.93S
GALESBURG*     PTCLDY    56  35  45 S9        29.90F
MACOMB*        PTCLDY    57  33  39 SW8       29.94S
JACKSONVILLE*  PTCLDY    60  34  37 S7        29.94S
PITTSFIELD*    PTCLDY    62  32  31 S8        29.95F
$$

ILZ028>032-037-038-041>044-048-051>054-059>061-310200-
CENTRAL ILLINOIS

CITY           SKY/WX    TMP DP  RH WIND       PRES   REMARKS
PONTIAC        CLOUDY    59  36  41 SW10      29.93S
BLOOMINGTON    CLOUDY    59  36  42 SW10      29.96R
DECATUR        PTCLDY    57  36  45 S13       29.96F
PEORIA         PTCLDY    60  32  34 SW10      29.93R
LACON*         MOCLDY    58  31  35 SW7       29.90F
LINCOLN*       MOCLDY    58  34  39 S3        29.95R
SPRINGFIELD    PTCLDY    59  35  40 S10       29.95S
TAYLORVILLE    CLEAR     54  36  50 S7        29.97S
$$

ILZ033-039-045-046-055>057-062-063-310200-
EAST-CENTRAL ILLINOIS

CITY           SKY/WX    TMP DP  RH WIND       PRES   REMARKS
CHAMPAIGN      MOCLDY    53  37  54 S8        29.97S
DANVILLE*      FAIR      55  37  51 SW10      29.94S
RANTOUL*       MOCLDY    57  38  48 SW12      29.96R
MATTOON        PTCLDY    56  33  42 S8        29.97F
PARIS*         MOCLDY    53  41  64 S9        30.00F
$$

ILZ079-100>102-310200-
SOUTHWEST ILLINOIS

CITY           SKY/WX    TMP DP  RH WIND       PRES   REMARKS
ALTON          CLEAR     61  21  21 S7        29.98S
BELLEVILLE     CLEAR     59  36  42 S7        29.98F
CAHOKIA*       CLEAR     62  34  35 S7        29.98F
SPARTA*        CLEAR     60  38  44 S12G17    30.03S
$$

ILZ064>066-069>071-074>076-080>082-084>086-088>090-092>094-310200-
SOUTH-CENTRAL ILLINOIS

CITY           SKY/WX    TMP DP  RH WIND       PRES   REMARKS
CARBONDALE     CLEAR     56  36  47 S9        30.05S
CAIRO*         PTCLDY    60  38  44 S5        30.08F
EFFINGHAM*     CLEAR     58  26  29 S5        30.01F
MARION         CLEAR     54  36  50 S8        30.06S
MT. VERNON     CLEAR     55  32  41 S5        30.03F
CENTRALIA*     CLEAR     55  34  45 S8        30.01F
SALEM*         CLEAR     60  29  30 S6        30.01F
METROPOLIS*    PTCLDY    58  37  46 SW3       30.08S
$$

ILZ067-068-072-073-078-083-087-091-310200-
SOUTHEAST ILLINOIS

CITY           SKY/WX    TMP DP  RH WIND       PRES   REMARKS
LAWRENCEVILLE  CLEAR     52  34  50 S8        30.04S
FLORA*         CLEAR     53  34  47 S8        30.03S
FAIRFIELD*     CLEAR     57  36  45 S5        30.03F
HARRISBURG*    CLEAR     57  36  44 S7        30.07S
ROBINSON*      CLEAR     51  36  56 SW8       30.03F
CARMI*         PTCLDY    51  35  53 SE7       30.05S
$$

ABBREVIATIONS USED IN REMARKS
   TC - TEMPERATURE IN CELSIUS
  WCI - WIND CHILL INDEX
   HX - HEAT INDEX
  VSB - VISIBILITY
$$




USA.gov is the U.S. government's official web portal to all federal, state and local government web resources and services.